Time,TemperatureF,DewpointF,PressureIn,WindDirection,WindDirectionDegrees,WindSpeedMPH,WindSpeedGustMPH,Humidity,HourlyPrecipIn,Conditions,Clouds,dailyrainin,SoftwareType,DateUTC
2013-02-28 00:01:00,42.4,29.5,30.30,SSE,162,0.0,0.0,60,0.00,,,0.00,VWS V13.01,2013-02-28 08:01:00,
2013-02-28 00:06:00,42.4,29.5,30.30,SSE,162,0.0,0.0,60,0.00,,,0.00,VWS V13.01,2013-02-28 08:06:00,
2013-02-28 00:13:00,42.4,29.5,30.30,SSE,162,0.0,0.0,60,0.00,,,0.00,VWS V13.01,2013-02-28 08:13:00,
2013-02-28 00:18:00,42.4,29.5,30.30,SSE,162,0.0,0.0,60,0.00,,,0.00,VWS V13.01,2013-02-28 08:18:00,
2013-02-28 00:23:00,42.4,29.5,30.30,SSE,162,0.0,0.0,60,0.00,,,0.00,VWS V13.01,2013-02-28 08:23:00,
2013-02-28 00:29:00,42.4,29.5,30.30,SSE,162,0.0,0.0,60,0.00,,,0.00,VWS V13.01,2013-02-28 08:29:00,
2013-02-28 00:38:00,42.4,29.5,30.30,SSE,162,0.0,0.0,60,0.00,,,0.00,VWS V13.01,2013-02-28 08:38:00,
2013-02-28 00:52:00,42.4,29.5,30.30,SSE,162,0.0,0.0,60,0.00,,,0.00,VWS V13.01,2013-02-28 08:52:00,
2013-02-28 00:58:00,42.4,29.5,30.30,SSE,162,0.0,0.0,60,0.00,,,0.00,VWS V13.01,2013-02-28 08:58:00,
2013-02-28 01:03:00,42.4,29.5,30.30,SSE,162,0.0,0.0,60,0.00,,,0.00,VWS V13.01,2013-02-28 09:03:00,
2013-02-28 01:09:00,42.4,29.5,30.30,SSE,162,0.0,0.0,60,0.00,,,0.00,VWS V13.01,2013-02-28 09:09:00,
2013-02-28 01:14:00,42.4,29.5,30.30,SSE,162,0.0,0.0,60,0.00,,,0.00,VWS V13.01,2013-02-28 09:14:00,
2013-02-28 01:20:00,42.4,29.5,30.30,SSE,162,0.0,0.0,60,0.00,,,0.00,VWS V13.01,2013-02-28 09:20:00,
2013-02-28 01:27:00,42.4,29.5,30.30,SSE,162,0.0,0.0,60,0.00,,,0.00,VWS V13.01,2013-02-28 09:27:00,
2013-02-28 01:33:00,42.4,29.5,30.30,SSE,162,0.0,0.0,60,0.00,,,0.00,VWS V13.01,2013-02-28 09:33:00,
2013-02-28 01:38:00,42.4,29.5,30.30,SSE,162,0.0,0.0,60,0.00,,,0.00,VWS V13.01,2013-02-28 09:38:00,
2013-02-28 01:46:00,42.4,29.5,30.30,SSE,162,0.0,0.0,60,0.00,,,0.00,VWS V13.01,2013-02-28 09:46:00,
2013-02-28 01:51:00,42.4,29.5,30.30,SSE,162,0.0,0.0,60,0.00,,,0.00,VWS V13.01,2013-02-28 09:51:00,
2013-02-28 01:56:00,42.4,29.5,30.30,SSE,162,0.0,0.0,60,0.00,,,0.00,VWS V13.01,2013-02-28 09:56:00,
2013-02-28 02:01:00,42.4,29.5,30.30,SSE,162,0.0,0.0,60,0.00,,,0.00,VWS V13.01,2013-02-28 10:01:00,
2013-02-28 02:07:00,42.4,29.5,30.30,SSE,162,0.0,0.0,60,0.00,,,0.00,VWS V13.01,2013-02-28 10:07:00,
2013-02-28 02:12:00,42.4,29.5,30.30,SSE,162,0.0,0.0,60,0.00,,,0.00,VWS V13.01,2013-02-28 10:12:00,
2013-02-28 02:17:00,42.4,29.5,30.30,SSE,162,0.0,0.0,60,0.00,,,0.00,VWS V13.01,2013-02-28 10:17:00,
2013-02-28 02:25:00,42.4,29.5,30.30,SSE,162,0.0,0.0,60,0.00,,,0.00,VWS V13.01,2013-02-28 10:25:00,
2013-02-28 02:32:00,42.4,29.5,30.30,SSE,162,0.0,0.0,60,0.00,,,0.00,VWS V13.01,2013-02-28 10:32:00,
2013-02-28 02:43:00,42.4,29.5,30.30,SSE,162,0.0,0.0,60,0.00,,,0.00,VWS V13.01,2013-02-28 10:43:00,
2013-02-28 02:49:00,42.4,29.5,30.30,SSE,162,0.0,0.0,60,0.00,,,0.00,VWS V13.01,2013-02-28 10:49:00,
2013-02-28 02:54:00,42.4,29.5,30.30,SSE,162,0.0,0.0,60,0.00,,,0.00,VWS V13.01,2013-02-28 10:54:00,
2013-02-28 03:01:00,42.4,29.5,30.30,SSE,162,0.0,0.0,60,0.00,,,0.00,VWS V13.01,2013-02-28 11:01:00,
2013-02-28 03:08:00,42.4,29.5,30.30,SSE,162,0.0,0.0,60,0.00,,,0.00,VWS V13.01,2013-02-28 11:08:00,
2013-02-28 03:14:00,42.4,29.5,30.30,SSE,162,0.0,0.0,60,0.00,,,0.00,VWS V13.01,2013-02-28 11:14:00,
2013-02-28 03:20:00,42.4,29.5,30.30,SSE,162,0.0,0.0,60,0.00,,,0.00,VWS V13.01,2013-02-28 11:20:00,
2013-02-28 03:25:00,42.4,29.5,30.30,SSE,162,0.0,0.0,60,0.00,,,0.00,VWS V13.01,2013-02-28 11:25:00,
2013-02-28 03:40:00,42.4,29.5,30.30,SSE,162,0.0,0.0,60,0.00,,,0.00,VWS V13.01,2013-02-28 11:40:00,
2013-02-28 03:45:00,42.4,29.5,30.30,SSE,162,0.0,0.0,60,0.00,,,0.00,VWS V13.01,2013-02-28 11:45:00,
2013-02-28 03:50:00,42.4,29.5,30.30,SSE,162,0.0,0.0,60,0.00,,,0.00,VWS V13.01,2013-02-28 11:50:00,
2013-02-28 03:59:00,42.4,29.5,30.30,SSE,162,0.0,0.0,60,0.00,,,0.00,VWS V13.01,2013-02-28 11:59:00,
2013-02-28 04:04:00,42.4,29.5,30.30,SSE,162,0.0,0.0,60,0.00,,,0.00,VWS V13.01,2013-02-28 12:04:00,
2013-02-28 04:09:00,42.4,29.5,30.30,SSE,162,0.0,0.0,60,0.00,,,0.00,VWS V13.01,2013-02-28 12:09:00,
2013-02-28 04:17:00,42.4,29.5,30.30,SSE,162,0.0,0.0,60,0.00,,,0.00,VWS V13.01,2013-02-28 12:17:00,
2013-02-28 04:24:00,42.4,29.5,30.30,SSE,162,0.0,0.0,60,0.00,,,0.00,VWS V13.01,2013-02-28 12:24:00,
2013-02-28 04:30:00,42.4,29.5,30.30,SSE,162,0.0,0.0,60,0.00,,,0.00,VWS V13.01,2013-02-28 12:30:00,
2013-02-28 04:36:00,42.4,29.5,30.30,SSE,162,0.0,0.0,60,0.00,,,0.00,VWS V13.01,2013-02-28 12:36:00,
2013-02-28 04:44:00,42.4,29.5,30.30,SSE,162,0.0,0.0,60,0.00,,,0.00,VWS V13.01,2013-02-28 12:44:00,
2013-02-28 04:49:00,42.4,29.5,30.30,SSE,162,0.0,0.0,60,0.00,,,0.00,VWS V13.01,2013-02-28 12:49:00,
2013-02-28 04:58:00,42.4,29.5,30.30,SSE,162,0.0,0.0,60,0.00,,,0.00,VWS V13.01,2013-02-28 12:58:00,
2013-02-28 05:03:00,42.4,29.5,30.30,SSE,162,0.0,0.0,60,0.00,,,0.00,VWS V13.01,2013-02-28 13:03:00,
2013-02-28 05:08:00,42.4,29.5,30.30,SSE,162,0.0,0.0,60,0.00,,,0.00,VWS V13.01,2013-02-28 13:08:00,
2013-02-28 05:20:00,42.4,29.5,30.30,SSE,162,0.0,0.0,60,0.00,,,0.00,VWS V13.01,2013-02-28 13:20:00,
2013-02-28 05:25:00,42.4,29.5,30.30,SSE,162,0.0,0.0,60,0.00,,,0.00,VWS V13.01,2013-02-28 13:25:00,
2013-02-28 05:33:00,42.4,29.5,30.30,SSE,162,0.0,0.0,60,0.00,,,0.00,VWS V13.01,2013-02-28 13:33:00,
2013-02-28 05:42:00,42.4,29.5,30.30,SSE,162,0.0,0.0,60,0.00,,,0.00,VWS V13.01,2013-02-28 13:42:00,
2013-02-28 05:59:00,42.4,29.5,30.30,SSE,162,0.0,0.0,60,0.00,,,0.00,VWS V13.01,2013-02-28 13:59:00,
2013-02-28 06:06:00,42.4,29.5,30.30,SSE,162,0.0,0.0,60,0.00,,,0.00,VWS V13.01,2013-02-28 14:06:00,
2013-02-28 06:11:00,42.4,29.5,30.30,SSE,162,0.0,0.0,60,0.00,,,0.00,VWS V13.01,2013-02-28 14:11:00,
2013-02-28 06:16:00,42.4,29.5,30.30,SSE,162,0.0,0.0,60,0.00,,,0.00,VWS V13.01,2013-02-28 14:16:00,
2013-02-28 06:21:00,42.4,29.5,30.30,SSE,162,0.0,0.0,60,0.00,,,0.00,VWS V13.01,2013-02-28 14:21:00,
2013-02-28 06:27:00,42.4,29.5,30.30,SSE,162,0.0,0.0,60,0.00,,,0.00,VWS V13.01,2013-02-28 14:27:00,
2013-02-28 06:32:00,42.4,29.5,30.30,SSE,162,0.0,0.0,60,0.00,,,0.00,VWS V13.01,2013-02-28 14:32:00,
2013-02-28 06:37:00,42.4,29.5,30.30,SSE,162,0.0,0.0,60,0.00,,,0.00,VWS V13.01,2013-02-28 14:37:00,
2013-02-28 06:47:00,42.4,29.5,30.30,SSE,162,0.0,0.0,60,0.00,,,0.00,VWS V13.01,2013-02-28 14:47:00,
2013-02-28 07:13:00,42.4,29.5,30.30,SSE,162,0.0,0.0,60,0.00,,,0.00,VWS V13.01,2013-02-28 15:13:00,
2013-02-28 07:18:00,42.4,29.5,30.30,SSE,162,0.0,0.0,60,0.00,,,0.00,VWS V13.01,2013-02-28 15:18:00,
2013-02-28 07:26:00,42.4,29.5,30.30,SSE,162,0.0,0.0,60,0.00,,,0.00,VWS V13.01,2013-02-28 15:26:00,
2013-02-28 07:33:00,42.4,29.5,30.30,SSE,162,0.0,0.0,60,0.00,,,0.00,VWS V13.01,2013-02-28 15:33:00,
2013-02-28 07:42:00,42.4,29.5,30.30,SSE,162,0.0,0.0,60,0.00,,,0.00,VWS V13.01,2013-02-28 15:42:00,
2013-02-28 07:48:00,42.4,29.5,30.30,NNW,332,4.9,4.9,60,0.00,,,0.00,VWS V13.01,2013-02-28 15:48:00,
2013-02-28 07:53:00,51.4,50.9,30.30,NW,315,5.4,7.6,98,0.00,,,0.00,VWS V13.01,2013-02-28 15:53:00,
2013-02-28 07:58:00,51.4,50.9,30.30,WNW,302,2.7,8.1,98,0.00,,,0.00,VWS V13.01,2013-02-28 15:58:00,
2013-02-28 08:02:00,51.4,50.9,30.30,NW,312,6.3,8.1,98,0.00,,,0.00,VWS V13.01,2013-02-28 16:02:00,
2013-02-28 08:08:00,51.4,50.9,30.33,NW,322,8.3,8.7,98,0.00,,,0.00,VWS V13.01,2013-02-28 16:08:00,
2013-02-28 08:13:00,51.6,51.1,30.33,WNW,291,8.7,10.5,98,0.00,,,0.00,VWS V13.01,2013-02-28 16:13:00,
2013-02-28 08:18:00,51.6,51.1,30.33,WNW,303,2.7,5.8,98,0.00,,,0.00,VWS V13.01,2013-02-28 16:18:00,
2013-02-28 08:23:00,51.6,51.1,30.33,NW,324,4.0,6.3,98,0.00,,,0.00,VWS V13.01,2013-02-28 16:23:00,
2013-02-28 08:28:00,51.6,51.1,30.33,WSW,256,5.4,6.3,98,0.00,,,0.00,VWS V13.01,2013-02-28 16:28:00,
2013-02-28 08:33:00,51.8,51.3,30.33,West,277,4.9,4.9,98,0.00,,,0.00,VWS V13.01,2013-02-28 16:33:00,
2013-02-28 08:38:00,51.8,51.3,30.33,West,278,8.7,8.7,98,0.00,,,0.00,VWS V13.01,2013-02-28 16:38:00,
2013-02-28 08:43:00,51.8,51.3,30.33,West,277,3.6,9.6,98,0.00,,,0.00,VWS V13.01,2013-02-28 16:43:00,
2013-02-28 08:48:00,52.0,51.4,30.33,NNW,331,5.4,6.3,98,0.00,,,0.00,VWS V13.01,2013-02-28 16:48:00,
2013-02-28 08:53:00,52.0,51.4,30.33,WNW,298,5.8,5.8,98,0.00,,,0.00,VWS V13.01,2013-02-28 16:53:00,
2013-02-28 08:58:00,52.0,51.4,30.33,WNW,288,6.3,6.3,98,0.00,,,0.00,VWS V13.01,2013-02-28 16:58:00,
2013-02-28 09:03:00,52.0,51.4,30.33,WSW,246,4.0,10.1,98,0.00,,,0.00,VWS V13.01,2013-02-28 17:03:00,
2013-02-28 09:08:00,52.0,51.4,30.33,NW,318,6.3,6.3,98,0.00,,,0.00,VWS V13.01,2013-02-28 17:08:00,
2013-02-28 09:13:00,52.0,51.4,30.33,WNW,288,3.6,8.3,98,0.00,,,0.00,VWS V13.01,2013-02-28 17:13:00,
2013-02-28 09:18:00,52.0,51.4,30.33,WNW,292,3.6,3.6,98,0.00,,,0.00,VWS V13.01,2013-02-28 17:18:00,
2013-02-28 09:23:00,51.8,51.3,30.36,SW,232,8.3,8.3,98,0.00,,,0.00,VWS V13.01,2013-02-28 17:23:00,
2013-02-28 09:28:00,51.8,51.3,30.36,WNW,294,8.3,8.3,98,0.00,,,0.00,VWS V13.01,2013-02-28 17:28:00,
2013-02-28 09:33:00,51.8,51.3,30.36,WNW,294,7.2,7.2,98,0.00,,,0.00,VWS V13.01,2013-02-28 17:33:00,
2013-02-28 09:38:00,51.8,51.3,30.36,NNE,15,8.1,12.3,98,0.00,,,0.00,VWS V13.01,2013-02-28 17:38:00,
2013-02-28 09:43:00,51.6,51.1,30.36,NW,304,12.3,12.3,98,0.00,,,0.00,VWS V13.01,2013-02-28 17:43:00,
2013-02-28 09:48:00,51.6,51.1,30.36,WNW,292,8.1,10.5,98,0.00,,,0.00,VWS V13.01,2013-02-28 17:48:00,
2013-02-28 09:53:00,51.6,51.1,30.36,NW,312,8.3,12.8,98,0.00,,,0.00,VWS V13.01,2013-02-28 17:53:00,
2013-02-28 09:58:00,51.6,51.1,30.36,WSW,255,8.7,8.7,98,0.00,,,0.00,VWS V13.01,2013-02-28 17:58:00,
2013-02-28 10:03:00,51.6,51.1,30.36,WNW,293,6.3,12.8,98,0.00,,,0.00,VWS V13.01,2013-02-28 18:03:00,
2013-02-28 10:08:00,51.6,51.1,30.36,NW,305,6.3,6.7,98,0.00,,,0.00,VWS V13.01,2013-02-28 18:08:00,
2013-02-28 10:13:00,51.6,51.1,30.36,WNW,288,12.8,12.8,98,0.00,,,0.00,VWS V13.01,2013-02-28 18:13:00,
2013-02-28 10:18:00,51.6,51.1,30.36,NW,313,5.8,7.6,98,0.00,,,0.00,VWS V13.01,2013-02-28 18:18:00,
2013-02-28 10:23:00,51.8,51.3,30.36,West,277,8.3,8.3,98,0.00,,,0.00,VWS V13.01,2013-02-28 18:23:00,
2013-02-28 10:28:00,51.8,51.3,30.36,WNW,300,7.2,8.1,98,0.00,,,0.00,VWS V13.01,2013-02-28 18:28:00,
2013-02-28 10:33:00,51.8,51.3,30.36,WNW,294,8.3,8.3,98,0.00,,,0.00,VWS V13.01,2013-02-28 18:33:00,
2013-02-28 10:38:00,51.8,51.3,30.36,West,267,5.8,5.8,98,0.00,,,0.00,VWS V13.01,2013-02-28 18:38:00,
2013-02-28 10:43:00,52.0,51.4,30.36,NW,318,6.3,6.3,98,0.00,,,0.00,VWS V13.01,2013-02-28 18:43:00,
2013-02-28 10:48:00,52.0,51.4,30.36,WNW,295,5.8,7.6,98,0.00,,,0.00,VWS V13.01,2013-02-28 18:48:00,
2013-02-28 10:53:00,52.2,51.6,30.39,WSW,257,6.3,7.6,98,0.00,,,0.00,VWS V13.01,2013-02-28 18:53:00,
2013-02-28 10:58:00,52.2,51.6,30.39,NW,310,7.6,7.6,98,0.00,,,0.00,VWS V13.01,2013-02-28 18:58:00,
2013-02-28 11:03:00,52.2,51.3,30.39,West,267,10.5,10.5,97,0.00,,,0.00,VWS V13.01,2013-02-28 19:03:00,
2013-02-28 11:08:00,52.2,51.3,30.39,West,265,4.0,8.7,97,0.00,,,0.00,VWS V13.01,2013-02-28 19:08:00,
2013-02-28 11:13:00,52.2,51.1,30.39,West,274,10.1,10.1,96,0.00,,,0.00,VWS V13.01,2013-02-28 19:13:00,
2013-02-28 11:18:00,52.2,51.1,30.39,NW,315,3.1,6.3,96,0.00,,,0.00,VWS V13.01,2013-02-28 19:18:00,
2013-02-28 11:23:00,52.0,50.6,30.39,North,7,3.1,11.0,95,0.00,,,0.00,VWS V13.01,2013-02-28 19:23:00,
2013-02-28 11:28:00,52.2,50.8,30.39,North,5,6.3,13.2,95,0.00,,,0.00,VWS V13.01,2013-02-28 19:28:00,
2013-02-28 11:33:00,52.2,50.8,30.39,WNW,300,8.1,11.0,95,0.00,,,0.00,VWS V13.01,2013-02-28 19:33:00,
2013-02-28 11:38:00,52.3,51.0,30.39,West,274,7.6,12.3,95,0.00,,,0.00,VWS V13.01,2013-02-28 19:38:00,
2013-02-28 11:42:00,52.3,51.0,30.39,North,1,8.1,8.1,95,0.00,,,0.00,VWS V13.01,2013-02-28 19:42:00,
2013-02-28 11:47:00,52.3,51.0,30.39,NNW,346,5.8,7.2,95,0.00,,,0.00,VWS V13.01,2013-02-28 19:47:00,
2013-02-28 11:52:00,52.3,51.0,30.39,NW,326,6.3,8.1,95,0.00,,,0.00,VWS V13.01,2013-02-28 19:52:00,
2013-02-28 11:57:00,52.5,51.1,30.39,NW,304,10.1,10.1,95,0.00,,,0.00,VWS V13.01,2013-02-28 19:57:00,
2013-02-28 12:02:00,52.3,50.7,30.39,North,353,5.4,10.1,94,0.00,,,0.00,VWS V13.01,2013-02-28 20:02:00,
2013-02-28 12:07:00,52.5,50.8,30.39,WNW,290,8.3,8.3,94,0.00,,,0.00,VWS V13.01,2013-02-28 20:07:00,
2013-02-28 12:12:00,52.7,51.0,30.39,NW,314,5.8,6.3,94,0.00,,,0.00,VWS V13.01,2013-02-28 20:12:00,
2013-02-28 12:17:00,52.7,51.0,30.39,SW,215,5.4,5.8,94,0.00,,,0.00,VWS V13.01,2013-02-28 20:17:00,
2013-02-28 12:22:00,52.7,51.0,30.39,SSW,213,7.6,8.1,94,0.00,,,0.00,VWS V13.01,2013-02-28 20:22:00,
2013-02-28 12:27:00,52.7,51.0,30.39,NW,306,6.3,9.6,94,0.00,,,0.00,VWS V13.01,2013-02-28 20:27:00,
2013-02-28 12:32:00,52.7,51.0,30.39,West,272,4.0,8.3,94,0.00,,,0.00,VWS V13.01,2013-02-28 20:32:00,
2013-02-28 12:37:00,52.7,51.0,30.39,NW,315,7.2,8.3,94,0.00,,,0.00,VWS V13.01,2013-02-28 20:37:00,
2013-02-28 12:42:00,52.7,50.7,30.39,WNW,293,6.7,14.5,93,0.00,,,0.00,VWS V13.01,2013-02-28 20:42:00,
2013-02-28 12:47:00,52.7,50.7,30.39,SW,227,5.4,8.7,93,0.00,,,0.00,VWS V13.01,2013-02-28 20:47:00,
2013-02-28 12:52:00,52.7,50.7,30.39,NW,304,10.1,10.1,93,0.00,,,0.00,VWS V13.01,2013-02-28 20:52:00,
2013-02-28 12:57:00,52.7,50.7,30.39,WNW,295,7.6,7.6,93,0.00,,,0.00,VWS V13.01,2013-02-28 20:57:00,
2013-02-28 13:02:00,52.7,50.5,30.39,WSW,246,10.5,10.5,92,0.00,,,0.00,VWS V13.01,2013-02-28 21:02:00,
2013-02-28 13:07:00,52.7,50.5,30.39,WNW,301,10.5,10.5,92,0.00,,,0.00,VWS V13.01,2013-02-28 21:07:00,
2013-02-28 13:12:00,52.7,50.2,30.39,WNW,301,7.6,10.1,91,0.00,,,0.00,VWS V13.01,2013-02-28 21:12:00,
2013-02-28 13:17:00,52.5,49.7,30.39,NW,308,4.0,8.3,90,0.00,,,0.00,VWS V13.01,2013-02-28 21:17:00,
2013-02-28 13:22:00,52.3,49.5,30.39,WNW,294,10.5,12.8,90,0.00,,,0.00,VWS V13.01,2013-02-28 21:22:00,
2013-02-28 13:27:00,52.3,49.5,30.39,WNW,293,9.6,15.4,90,0.00,,,0.00,VWS V13.01,2013-02-28 21:27:00,
2013-02-28 13:32:00,52.3,49.2,30.39,WNW,287,5.8,6.3,89,0.00,,,0.00,VWS V13.01,2013-02-28 21:32:00,
2013-02-28 13:37:00,52.3,49.2,30.39,NNW,335,7.2,7.2,89,0.00,,,0.00,VWS V13.01,2013-02-28 21:37:00,
2013-02-28 13:42:00,52.2,49.0,30.39,WNW,284,8.1,8.1,89,0.00,,,0.00,VWS V13.01,2013-02-28 21:42:00,
2013-02-28 13:47:00,52.2,49.0,30.39,SW,218,6.3,6.3,89,0.00,,,0.00,VWS V13.01,2013-02-28 21:47:00,
2013-02-28 13:52:00,52.2,49.0,30.42,West,268,7.6,10.5,89,0.00,,,0.00,VWS V13.01,2013-02-28 21:52:00,
2013-02-28 13:57:00,52.0,48.8,30.42,West,269,3.1,11.0,89,0.00,,,0.00,VWS V13.01,2013-02-28 21:57:00,
2013-02-28 14:02:00,52.0,48.8,30.42,South,190,8.1,12.3,89,0.00,,,0.00,VWS V13.01,2013-02-28 22:02:00,
2013-02-28 14:07:00,52.0,48.8,30.42,NW,306,4.0,5.4,89,0.00,,,0.00,VWS V13.01,2013-02-28 22:07:00,
2013-02-28 14:12:00,51.8,48.7,30.42,NNW,328,5.4,10.1,89,0.00,,,0.00,VWS V13.01,2013-02-28 22:12:00,
2013-02-28 14:17:00,52.0,48.8,30.42,WSW,254,4.0,8.1,89,0.00,,,0.00,VWS V13.01,2013-02-28 22:17:00,
2013-02-28 14:22:00,52.0,48.8,30.39,WNW,300,8.1,8.1,89,0.00,,,0.00,VWS V13.01,2013-02-28 22:22:00,
2013-02-28 14:27:00,52.0,49.1,30.39,WSW,253,7.6,11.0,90,0.00,,,0.00,VWS V13.01,2013-02-28 22:27:00,
2013-02-28 14:32:00,52.0,49.1,30.39,NW,312,8.3,10.1,90,0.00,,,0.00,VWS V13.01,2013-02-28 22:32:00,
2013-02-28 14:37:00,52.0,49.1,30.39,NW,315,2.2,5.8,90,0.00,,,0.00,VWS V13.01,2013-02-28 22:37:00,
2013-02-28 14:42:00,52.0,49.1,30.39,NW,309,6.3,8.3,90,0.00,,,0.00,VWS V13.01,2013-02-28 22:42:00,
2013-02-28 14:47:00,52.0,49.1,30.39,NW,311,6.3,6.3,90,0.00,,,0.00,VWS V13.01,2013-02-28 22:47:00,
2013-02-28 14:52:00,52.2,49.6,30.42,NW,304,5.8,10.1,91,0.00,,,0.00,VWS V13.01,2013-02-28 22:52:00,
2013-02-28 14:57:00,52.2,49.6,30.42,WNW,299,8.7,8.7,91,0.00,,,0.00,VWS V13.01,2013-02-28 22:57:00,
2013-02-28 15:02:00,52.2,49.6,30.42,WNW,303,4.0,8.1,91,0.00,,,0.00,VWS V13.01,2013-02-28 23:02:00,
2013-02-28 15:07:00,52.2,49.6,30.42,WNW,301,5.4,6.3,91,0.00,,,0.00,VWS V13.01,2013-02-28 23:07:00,
2013-02-28 15:12:00,52.2,49.9,30.42,West,280,6.3,6.3,92,0.00,,,0.00,VWS V13.01,2013-02-28 23:12:00,
2013-02-28 15:17:00,52.2,49.9,30.42,WNW,290,3.1,7.6,92,0.00,,,0.00,VWS V13.01,2013-02-28 23:17:00,
2013-02-28 15:22:00,52.3,50.1,30.42,WNW,303,10.1,10.1,92,0.00,,,0.00,VWS V13.01,2013-02-28 23:22:00,
2013-02-28 15:27:00,52.3,50.1,30.42,SSW,203,4.9,8.1,92,0.00,,,0.00,VWS V13.01,2013-02-28 23:27:00,
2013-02-28 15:32:00,52.2,50.2,30.42,NW,313,6.3,7.6,93,0.00,,,0.00,VWS V13.01,2013-02-28 23:32:00,
2013-02-28 15:37:00,52.3,50.4,30.42,NW,316,6.3,10.1,93,0.00,,,0.00,VWS V13.01,2013-02-28 23:37:00,
2013-02-28 15:42:00,52.2,50.2,30.42,WNW,291,5.8,6.3,93,0.00,,,0.00,VWS V13.01,2013-02-28 23:42:00,
2013-02-28 15:47:00,52.2,50.2,30.42,West,268,5.4,6.3,93,0.00,,,0.00,VWS V13.01,2013-02-28 23:47:00,
2013-02-28 15:52:00,52.0,50.0,30.42,NW,307,7.6,7.6,93,0.00,,,0.00,VWS V13.01,2013-02-28 23:52:00,
2013-02-28 15:57:00,52.0,50.0,30.42,WNW,289,6.3,7.6,93,0.00,,,0.00,VWS V13.01,2013-02-28 23:57:00,
2013-02-28 16:02:00,52.0,50.0,30.42,NW,315,5.8,6.3,93,0.00,,,0.00,VWS V13.01,2013-03-01 00:02:00,
2013-02-28 16:07:00,52.0,50.3,30.42,West,265,5.4,7.6,94,0.00,,,0.00,VWS V13.01,2013-03-01 00:07:00,
2013-02-28 16:12:00,52.0,50.3,30.42,WNW,291,7.6,8.7,94,0.00,,,0.00,VWS V13.01,2013-03-01 00:12:00,
2013-02-28 16:17:00,52.0,50.3,30.42,WNW,299,2.7,5.8,94,0.00,,,0.00,VWS V13.01,2013-03-01 00:17:00,
2013-02-28 16:22:00,52.0,50.3,30.42,NW,322,8.3,11.0,94,0.00,,,0.00,VWS V13.01,2013-03-01 00:22:00,
2013-02-28 16:27:00,52.0,50.6,30.42,NW,316,8.3,8.3,95,0.00,,,0.00,VWS V13.01,2013-03-01 00:27:00,
2013-02-28 16:32:00,52.0,50.6,30.42,WNW,300,4.0,8.3,95,0.00,,,0.00,VWS V13.01,2013-03-01 00:32:00,
2013-02-28 16:37:00,52.0,50.6,30.45,NW,317,8.3,8.3,95,0.00,,,0.00,VWS V13.01,2013-03-01 00:37:00,
2013-02-28 16:42:00,52.0,50.6,30.45,West,267,4.9,4.9,95,0.00,,,0.00,VWS V13.01,2013-03-01 00:42:00,
2013-02-28 16:47:00,52.0,50.9,30.45,NNW,329,5.8,14.1,96,0.00,,,0.00,VWS V13.01,2013-03-01 00:47:00,
2013-02-28 16:52:00,52.0,50.9,30.45,NW,314,5.8,8.1,96,0.00,,,0.00,VWS V13.01,2013-03-01 00:52:00,
2013-02-28 16:57:00,52.0,50.9,30.45,NW,322,6.3,6.3,96,0.00,,,0.00,VWS V13.01,2013-03-01 00:57:00,
2013-02-28 17:02:00,52.0,50.9,30.45,WNW,285,7.6,9.6,96,0.00,,,0.00,VWS V13.01,2013-03-01 01:02:00,
2013-02-28 17:07:00,52.0,51.2,30.45,North,357,6.3,6.3,97,0.00,,,0.00,VWS V13.01,2013-03-01 01:07:00,
2013-02-28 17:12:00,51.8,51.0,30.45,WNW,293,5.4,8.7,97,0.00,,,0.00,VWS V13.01,2013-03-01 01:12:00,
2013-02-28 17:17:00,51.8,51.0,30.45,NW,305,8.3,8.3,97,0.00,,,0.00,VWS V13.01,2013-03-01 01:17:00,
2013-02-28 17:22:00,51.8,51.3,30.45,NW,307,6.3,6.3,98,0.00,,,0.00,VWS V13.01,2013-03-01 01:22:00,
2013-02-28 17:27:00,51.8,51.3,30.45,West,267,5.4,5.4,98,0.00,,,0.00,VWS V13.01,2013-03-01 01:27:00,
2013-02-28 17:32:00,51.8,51.3,30.45,NW,306,7.2,8.3,98,0.00,,,0.00,VWS V13.01,2013-03-01 01:32:00,
2013-02-28 17:37:00,51.8,51.3,30.45,WNW,300,5.4,6.3,98,0.00,,,0.00,VWS V13.01,2013-03-01 01:37:00,
2013-02-28 17:42:00,51.8,51.3,30.45,WNW,282,3.1,8.3,98,0.00,,,0.00,VWS V13.01,2013-03-01 01:42:00,
2013-02-28 17:47:00,51.8,51.3,30.45,West,281,7.6,7.6,98,0.00,,,0.00,VWS V13.01,2013-03-01 01:47:00,
2013-02-28 17:52:00,51.8,51.3,30.45,NW,311,8.1,8.1,98,0.00,,,0.00,VWS V13.01,2013-03-01 01:52:00,
2013-02-28 17:57:00,51.8,51.3,30.45,WNW,299,4.5,6.3,98,0.00,,,0.00,VWS V13.01,2013-03-01 01:57:00,
2013-02-28 18:02:00,51.8,51.3,30.45,WNW,300,3.6,6.3,98,0.00,,,0.00,VWS V13.01,2013-03-01 02:02:00,
2013-02-28 18:07:00,51.8,51.3,30.45,WSW,241,5.8,5.8,98,0.00,,,0.00,VWS V13.01,2013-03-01 02:07:00,
2013-02-28 18:12:00,51.8,51.3,30.45,NNW,348,3.1,7.6,98,0.00,,,0.00,VWS V13.01,2013-03-01 02:12:00,
2013-02-28 18:17:00,52.0,51.4,30.45,NW,307,5.8,7.6,98,0.00,,,0.00,VWS V13.01,2013-03-01 02:17:00,
2013-02-28 18:22:00,52.0,51.4,30.45,WNW,282,4.0,7.6,98,0.00,,,0.00,VWS V13.01,2013-03-01 02:22:00,
2013-02-28 18:27:00,51.8,51.3,30.45,NW,321,4.9,9.6,98,0.00,,,0.00,VWS V13.01,2013-03-01 02:27:00,
2013-02-28 18:32:00,51.8,51.3,30.45,WNW,289,5.4,6.3,98,0.00,,,0.00,VWS V13.01,2013-03-01 02:32:00,
2013-02-28 18:37:00,51.8,51.3,30.45,WNW,295,6.3,7.2,98,0.00,,,0.00,VWS V13.01,2013-03-01 02:37:00,
2013-02-28 18:43:00,51.8,51.3,30.45,SW,219,5.8,5.8,98,0.00,,,0.00,VWS V13.01,2013-03-01 02:43:00,
2013-02-28 18:48:00,52.0,51.4,30.45,WSW,254,8.3,8.3,98,0.00,,,0.00,VWS V13.01,2013-03-01 02:48:00,
2013-02-28 18:53:00,52.0,51.4,30.45,SSW,209,6.3,6.3,98,0.00,,,0.00,VWS V13.01,2013-03-01 02:53:00,
2013-02-28 18:58:00,52.0,51.4,30.45,WSW,245,3.1,4.0,98,0.00,,,0.00,VWS V13.01,2013-03-01 02:58:00,
2013-02-28 19:03:00,52.0,51.4,30.45,WNW,286,10.5,12.8,98,0.00,,,0.00,VWS V13.01,2013-03-01 03:03:00,
2013-02-28 19:08:00,52.0,51.4,30.45,West,280,5.4,8.3,98,0.00,,,0.00,VWS V13.01,2013-03-01 03:08:00,
2013-02-28 19:13:00,52.0,51.4,30.45,NW,307,5.8,5.8,98,0.00,,,0.00,VWS V13.01,2013-03-01 03:13:00,
2013-02-28 19:17:00,52.0,51.4,30.45,NW,315,5.4,7.6,98,0.00,,,0.00,VWS V13.01,2013-03-01 03:17:00,
2013-02-28 19:22:00,52.0,51.4,30.45,NW,311,8.1,8.1,98,0.00,,,0.00,VWS V13.01,2013-03-01 03:22:00,
2013-02-28 19:27:00,52.0,51.4,30.45,West,264,4.9,8.1,98,0.00,,,0.00,VWS V13.01,2013-03-01 03:27:00,
2013-02-28 19:32:00,52.0,51.4,30.45,NNW,344,6.3,6.3,98,0.00,,,0.00,VWS V13.01,2013-03-01 03:32:00,
2013-02-28 19:37:00,52.0,51.4,30.47,NW,308,8.7,8.7,98,0.00,,,0.00,VWS V13.01,2013-03-01 03:37:00,
2013-02-28 19:42:00,52.2,51.6,30.47,WNW,303,5.4,8.1,98,0.00,,,0.00,VWS V13.01,2013-03-01 03:42:00,
2013-02-28 19:47:00,52.2,51.6,30.47,WSW,245,6.3,6.3,98,0.00,,,0.00,VWS V13.01,2013-03-01 03:47:00,
2013-02-28 19:53:00,52.0,51.4,30.47,NW,318,5.8,5.8,98,0.00,,,0.00,VWS V13.01,2013-03-01 03:53:00,
2013-02-28 19:58:00,52.0,51.4,30.47,WNW,288,4.0,8.1,98,0.00,,,0.00,VWS V13.01,2013-03-01 03:58:00,
2013-02-28 20:03:00,52.0,51.4,30.47,NW,311,8.1,8.1,98,0.00,,,0.00,VWS V13.01,2013-03-01 04:03:00,
2013-02-28 20:08:00,52.0,51.4,30.47,North,1,2.7,5.4,98,0.00,,,0.00,VWS V13.01,2013-03-01 04:08:00,
2013-02-28 20:12:00,52.0,51.4,30.47,West,262,6.3,6.3,98,0.00,,,0.00,VWS V13.01,2013-03-01 04:12:00,
2013-02-28 20:17:00,52.0,51.4,30.47,WSW,254,3.6,7.6,98,0.00,,,0.00,VWS V13.01,2013-03-01 04:17:00,
2013-02-28 20:22:00,52.0,51.4,30.47,West,269,3.6,6.3,98,0.00,,,0.00,VWS V13.01,2013-03-01 04:22:00,
2013-02-28 20:27:00,52.0,51.4,30.47,WSW,254,8.1,8.1,98,0.00,,,0.00,VWS V13.01,2013-03-01 04:27:00,
2013-02-28 20:32:00,52.0,51.4,30.47,NW,315,3.1,4.0,98,0.00,,,0.00,VWS V13.01,2013-03-01 04:32:00,
2013-02-28 20:37:00,52.0,51.4,30.47,NW,315,6.3,6.3,98,0.00,,,0.00,VWS V13.01,2013-03-01 04:37:00,
2013-02-28 20:42:00,52.2,51.6,30.47,NW,307,3.6,6.3,98,0.00,,,0.00,VWS V13.01,2013-03-01 04:42:00,
2013-02-28 20:47:00,52.2,51.6,30.47,WSW,258,3.1,5.8,98,0.00,,,0.00,VWS V13.01,2013-03-01 04:47:00,
2013-02-28 20:52:00,52.2,51.6,30.47,NW,311,6.3,6.3,98,0.00,,,0.00,VWS V13.01,2013-03-01 04:52:00,
2013-02-28 20:57:00,52.2,51.6,30.47,SSW,209,4.0,4.0,98,0.00,,,0.00,VWS V13.01,2013-03-01 04:57:00,
2013-02-28 21:00:00,52.2,51.6,30.47,West,264,5.4,5.8,98,0.00,,,0.00,VWS V13.01,2013-03-01 05:00:00,
2013-02-28 21:05:00,52.2,51.6,30.47,SW,226,5.8,5.8,98,0.00,,,0.00,VWS V13.01,2013-03-01 05:05:00,
2013-02-28 21:06:00,52.2,51.6,30.47,WNW,297,2.7,3.6,98,0.00,,,0.00,VWS V13.01,2013-03-01 05:06:00,
2013-02-28 21:11:00,52.2,51.6,30.47,SW,226,2.2,7.6,98,0.00,,,0.00,VWS V13.01,2013-03-01 05:11:00,
2013-02-28 21:16:00,52.2,51.6,30.47,WSW,249,7.6,7.6,98,0.00,,,0.00,VWS V13.01,2013-03-01 05:16:00,
2013-02-28 21:21:00,52.2,51.6,30.47,WNW,301,7.6,7.6,98,0.00,,,0.00,VWS V13.01,2013-03-01 05:21:00,
2013-02-28 21:26:00,52.2,51.6,30.47,WNW,296,4.0,4.0,98,0.00,,,0.00,VWS V13.01,2013-03-01 05:26:00,
2013-02-28 21:31:00,52.2,51.6,30.47,NW,308,6.3,6.3,98,0.00,,,0.00,VWS V13.01,2013-03-01 05:31:00,
2013-02-28 21:36:00,52.2,51.6,30.47,NW,315,3.1,3.6,98,0.00,,,0.00,VWS V13.01,2013-03-01 05:36:00,
2013-02-28 21:41:00,52.3,51.8,30.47,NW,305,2.7,2.7,98,0.00,,,0.00,VWS V13.01,2013-03-01 05:41:00,
2013-02-28 21:46:00,52.3,51.8,30.47,NNW,328,6.3,7.6,98,0.00,,,0.00,VWS V13.01,2013-03-01 05:46:00,
2013-02-28 21:51:00,52.3,51.8,30.47,NW,320,4.0,4.0,98,0.00,,,0.00,VWS V13.01,2013-03-01 05:51:00,
2013-02-28 21:56:00,52.3,51.8,30.47,WNW,302,9.6,9.6,98,0.00,,,0.00,VWS V13.01,2013-03-01 05:56:00,
2013-02-28 22:01:00,52.2,51.6,30.47,West,267,8.3,8.3,98,0.00,,,0.00,VWS V13.01,2013-03-01 06:01:00,
2013-02-28 22:06:00,52.2,51.6,30.50,NW,310,3.1,5.4,98,0.00,,,0.00,VWS V13.01,2013-03-01 06:06:00,
2013-02-28 22:11:00,52.2,51.6,30.50,NNW,329,5.4,5.8,98,0.00,,,0.00,VWS V13.01,2013-03-01 06:11:00,
2013-02-28 22:16:00,52.2,51.6,30.50,West,275,5.8,5.8,98,0.00,,,0.00,VWS V13.01,2013-03-01 06:16:00,
2013-02-28 22:21:00,52.2,51.6,30.50,WNW,300,6.7,6.7,98,0.00,,,0.00,VWS V13.01,2013-03-01 06:21:00,
2013-02-28 22:26:00,52.2,51.6,30.50,WNW,302,8.7,8.7,98,0.00,,,0.00,VWS V13.01,2013-03-01 06:26:00,
2013-02-28 22:31:00,52.0,51.4,30.50,NW,312,8.3,8.3,98,0.00,,,0.00,VWS V13.01,2013-03-01 06:31:00,
2013-02-28 22:36:00,52.0,51.4,30.50,West,280,7.6,7.6,98,0.00,,,0.00,VWS V13.01,2013-03-01 06:36:00,
2013-02-28 22:41:00,52.0,51.4,30.50,WNW,299,3.6,6.3,98,0.00,,,0.00,VWS V13.01,2013-03-01 06:41:00,
2013-02-28 22:46:00,51.8,51.3,30.50,WNW,289,5.4,10.5,98,0.00,,,0.00,VWS V13.01,2013-03-01 06:46:00,
2013-02-28 22:51:00,51.8,51.3,30.50,NW,319,8.3,8.7,98,0.00,,,0.00,VWS V13.01,2013-03-01 06:51:00,
2013-02-28 22:56:00,51.8,51.3,30.50,WNW,292,6.3,7.6,98,0.00,,,0.00,VWS V13.01,2013-03-01 06:56:00,
2013-02-28 23:01:00,51.6,51.1,30.50,WNW,292,5.8,5.8,98,0.00,,,0.00,VWS V13.01,2013-03-01 07:01:00,
2013-02-28 23:06:00,51.6,51.1,30.50,NW,317,4.9,4.9,98,0.00,,,0.00,VWS V13.01,2013-03-01 07:06:00,
2013-02-28 23:11:00,51.6,51.1,30.50,NW,325,0.0,0.0,98,0.00,,,0.00,VWS V13.01,2013-03-01 07:11:00,
2013-02-28 23:16:00,51.6,51.1,30.50,WSW,249,6.3,6.3,98,0.00,,,0.00,VWS V13.01,2013-03-01 07:16:00,
2013-02-28 23:21:00,51.6,51.1,30.50,NW,307,4.0,4.0,98,0.00,,,0.00,VWS V13.01,2013-03-01 07:21:00,
2013-02-28 23:26:00,51.8,51.3,30.50,NW,321,3.1,3.1,98,0.00,,,0.00,VWS V13.01,2013-03-01 07:26:00,
2013-02-28 23:31:00,51.8,51.3,30.50,SSW,207,3.1,4.0,98,0.00,,,0.00,VWS V13.01,2013-03-01 07:31:00,
2013-02-28 23:36:00,51.8,51.3,30.50,SW,232,0.0,3.6,98,0.00,,,0.00,VWS V13.01,2013-03-01 07:36:00,
2013-02-28 23:41:00,51.8,51.3,30.50,SSW,208,0.0,3.6,98,0.00,,,0.00,VWS V13.01,2013-03-01 07:41:00,
2013-02-28 23:46:00,52.0,51.4,30.50,NW,317,2.7,2.7,98,0.00,,,0.00,VWS V13.01,2013-03-01 07:46:00,
2013-02-28 23:51:00,52.0,51.4,30.50,WNW,298,3.1,3.1,98,0.00,,,0.00,VWS V13.01,2013-03-01 07:51:00,
2013-02-28 23:56:00,52.0,51.4,30.50,WNW,288,2.7,2.7,98,0.00,,,0.00,VWS V13.01,2013-03-01 07:56:00,